PY3MO-11 Weather Reports


Display with metric or nautical units.
time (UTC)temp
F
wind
direction
speed
MPH
gust
MPH
rain 1hr
in
rain 24hr
in
rain mn
in
humidity
%
barometer
mb
20260507165856 79 253 4.0 9.0 0.00 0.00 0.00 46 1005.9
20260507165356 78 270 6.0 14.0 0.00 0.00 0.00 47 1006.2
20260507164855 78 271 6.0 14.0 0.00 0.00 0.00 47 1006.3
20260507164355 78 265 9.0 15.0 0.00 0.00 0.00 47 1006.4
20260507163857 78 70 4.0 48.0 0.00 0.00 0.00 47 1006.5
20260507163357 78 69 3.0 48.0 0.00 0.00 0.00 48 1006.7
20260507162857 79 83 4.0 48.0 0.00 0.00 0.00 48 1006.5
20260507162356 79 181 8.0 12.0 0.00 0.00 0.00 47 1006.3
20260507161856 79 269 6.0 12.0 0.00 0.00 0.00 45 1006.8
20260507161356 79 269 6.0 12.0 0.00 0.00 0.00 45 1006.8
20260507160856 79 261 6.0 12.0 0.00 0.00 0.00 45 1006.8
20260507160356 79 232 6.0 17.0 0.00 0.00 0.00 45 1006.7
20260507155856 79 220 9.0 17.0 0.00 0.00 0.00 45 1006.7
20260507155357 79 235 10.0 17.0 0.00 0.00 0.00 46 1006.5
20260507154856 79 272 7.0 13.0 0.00 0.00 0.00 50 1007.1
20260507154356 79 291 6.0 13.0 0.00 0.00 0.00 50 1006.9
20260507153856 78 259 9.0 13.0 0.00 0.00 0.00 52 1007.2
20260507153356 78 267 4.0 14.0 0.00 0.00 0.00 53 1007.1
20260507152856 79 272 6.0 14.0 0.00 0.00 0.00 53 1007.2
20260507152356 79 228 6.0 14.0 0.00 0.00 0.00 53 1007.3
20260507151858 79 240 10.0 14.0 0.00 0.00 0.00 53 1007.4
20260507151356 78 237 5.0 13.0 0.00 0.00 0.00 53 1007.6
20260507150857 78 201 6.0 13.0 0.00 0.00 0.00 54 1007.5
20260507150357 78 224 6.0 14.0 0.00 0.00 0.00 54 1007.6
20260507145857 78 229 5.0 16.0 0.00 0.00 0.00 54 1007.8
20260507145357 78 221 9.0 16.0 0.00 0.00 0.00 55 1007.9
20260507144856 78 244 6.0 16.0 0.00 0.00 0.00 57 1008.0
20260507144356 77 256 6.0 16.0 0.00 0.00 0.00 57 1008.2
20260507143856 77 235 3.0 12.0 0.00 0.00 0.00 60 1008.5
20260507143356 76 245 6.0 12.0 0.00 0.00 0.00 60 1008.7
20260507142856 75 149 9.0 13.0 0.00 0.00 0.00 61 1009.2
20260507142356 74 231 6.0 13.0 0.00 0.00 0.00 62 1009.2
20260507141855 73 265 6.0 10.0 0.00 0.00 0.00 63 1009.2
20260507141355 73 296 4.0 7.0 0.00 0.00 0.00 64 1009.2
20260507140857 73 298 6.0 13.0 0.00 0.00 0.00 64 1009.2
20260507140357 73 272 5.0 13.0 0.00 0.00 0.00 64 1009.5
20260507135857 73 270 6.0 9.0 0.00 0.00 0.00 64 1009.7
20260507135357 73 254 6.0 9.0 0.00 0.00 0.00 64 1009.9
20260507134856 73 209 4.0 15.0 0.00 0.00 0.00 64 1010.0
20260507134356 73 214 4.0 15.0 0.00 0.00 0.00 64 1010.1
20260507133856 72 224 11.0 15.0 0.00 0.00 0.00 70 1010.0
20260507133356 72 217 6.0 15.0 0.00 0.00 0.00 70 1010.1
20260507132856 71 213 6.0 15.0 0.00 0.00 0.00 70 1010.5
20260507132356 71 226 6.0 14.0 0.00 0.00 0.00 70 1010.6
20260507131855 71 263 8.0 12.0 0.00 0.00 0.00 71 1010.4
20260507131355 71 282 6.0 9.0 0.00 0.00 0.00 70 1010.5
20260507130900 72 274 4.0 12.0 0.00 0.00 0.00 70 1010.9
20260507130357 72 283 4.0 12.0 0.00 0.00 0.00 70 1010.8
20260507125857 72 277 9.0 12.0 0.00 0.00 0.00 70 1010.7
20260507125357 72 224 4.0 11.0 0.00 0.00 0.00 70 1010.8
20260507124857 72 236 6.0 11.0 0.00 0.00 0.00 70 1011.0
20260507124356 72 264 6.0 9.0 0.00 0.00 0.00 71 1011.0
20260507123856 71 254 6.0 9.0 0.00 0.00 0.00 71 1010.8
20260507123356 71 227 6.0 9.0 0.00 0.00 0.00 71 1010.9
20260507122856 71 260 6.0 9.0 0.00 0.00 0.00 72 1010.8
20260507122356 70 285 7.0 9.0 0.00 0.00 0.00 72 1011.0
20260507121855 70 251 6.0 10.0 0.00 0.00 0.00 72 1011.0
20260507121355 70 197 4.0 10.0 0.00 0.00 0.00 72 1011.1
20260507120857 70 175 4.0 10.0 0.00 0.00 0.00 72 1011.1
20260507120357 70 203 5.0 11.0 0.00 0.00 0.00 72 1011.1
20260507115857 70 198 3.0 14.0 0.00 0.00 0.00 72 1011.3
20260507115357 70 200 3.0 14.0 0.00 0.00 0.00 72 1011.2
20260507114855 70 221 7.0 11.0 0.00 0.00 0.00 72 1011.1
20260507114355 70 219 6.0 11.0 0.00 0.00 0.00 72 1010.8
20260507113857 70 205 6.0 11.0 0.00 0.00 0.00 72 1010.9
20260507113357 70 207 7.0 12.0 0.00 0.00 0.00 72 1010.8
20260507112857 71 240 6.0 12.0 0.00 0.00 0.00 72 1011.0
20260507112357 71 236 5.0 11.0 0.00 0.00 0.00 72 1011.0
20260507111857 70 206 6.0 11.0 0.00 0.00 0.00 73 1010.8
20260507111355 70 223 6.0 9.0 0.00 0.00 0.00 75 1010.9
20260507110857 69 207 6.0 9.0 0.00 0.00 0.00 75 1011.1
20260507110357 69 222 3.0 7.0 0.00 0.00 0.00 76 1011.3
20260507105857 68 233 5.0 7.0 0.00 0.00 0.00 77 1011.3
20260507105357 68 249 3.0 6.0 0.00 0.00 0.00 77 1011.3
20260507022357 67 89 2.0 4.0 0.00 0.00 0.00 80 1015.9
20260507021856 67 96 0.0 2.0 0.00 0.00 0.00 80 1016.0
20260507021356 67 90 0.0 1.0 0.00 0.00 0.00 80 1015.9
20260507020856 67 90 0.0 1.0 0.00 0.00 0.00 80 1016.0
20260507020356 67 101 0.0 1.0 0.00 0.00 0.00 80 1016.2
20260507015858 67 97 0.0 1.0 0.00 0.00 0.00 79 1016.2
20260507015358 67 80 0.0 2.0 0.00 0.00 0.00 79 1016.3
20260507014858 67 5 0.0 3.0 0.00 0.00 0.00 80 1016.3
20260507014357 67 55 0.0 3.0 0.00 0.00 0.00 81 1016.4
20260507013857 67 114 0.0 1.0 0.00 0.00 0.00 82 1016.1
20260507013357 66 104 0.0 0.0 0.00 0.00 0.00 82 1016.2
20260507012858 66 115 0.0 0.0 0.00 0.00 0.00 83 1016.3
20260507012358 66 90 0.0 0.0 0.00 0.00 0.00 83 1016.2
20260507011858 66 324 0.0 0.0 0.00 0.00 0.00 82 1016.4
20260507011357 66 0 0.0 0.0 0.00 0.00 0.00 82 1016.4
20260507010857 66 0 0.0 0.0 0.00 0.00 0.00 82 1016.3
20260507010357 66 90 0.0 0.0 0.00 0.00 0.00 81 1016.4
20260507005857 67 90 0.0 0.0 0.00 0.00 0.00 81 1016.3
20260507005357 67 90 0.0 0.0 0.00 0.00 0.00 81 1016.4
20260507004857 67 90 0.0 0.0 0.00 0.00 0.00 81 1016.4
20260507004356 67 90 0.0 1.0 0.00 0.00 0.00 82 1016.6
20260507003856 67 101 0.0 1.0 0.00 0.00 0.00 82 1016.4
20260507003356 66 104 0.0 0.0 0.00 0.00 0.00 83 1016.5
20260507002858 66 90 0.0 1.0 0.00 0.00 0.00 83 1016.6
20260507002358 66 90 0.0 1.0 0.00 0.00 0.00 83 1016.6
20260507001858 66 90 0.0 1.0 0.00 0.00 0.00 83 1016.7
20260507001358 66 90 0.0 0.0 0.00 0.00 0.00 83 1016.5
20260507000857 66 0 0.0 0.0 0.00 0.00 0.00 82 1016.6
20260507000358 66 0 0.0 0.0 0.00 0.00 0.00 82 1016.7
20260506235857 67 90 0.0 0.0 0.00 0.00 0.00 82 1016.6
20260506235357 67 90 0.0 0.0 0.00 0.00 0.00 81 1016.6
20260506234857 67 0 0.0 0.0 0.00 0.00 0.00 81 1016.6
20260506234357 67 0 0.0 0.0 0.00 0.00 0.00 81 1016.5
20260506233857 67 0 0.0 0.0 0.00 0.00 0.00 80 1016.7
20260506233356 68 0 0.0 0.0 0.00 0.00 0.00 80 1016.8
20260506232856 68 0 0.0 0.0 0.00 0.00 0.00 80 1016.7
20260506232358 68 0 0.0 0.0 0.00 0.00 0.00 79 1016.6
20260506231858 68 90 0.0 0.0 0.00 0.00 0.00 79 1016.7
20260506231358 68 90 0.0 0.0 0.00 0.00 0.00 79 1016.7
20260506230858 69 90 0.0 0.0 0.00 0.00 0.00 79 1016.5
20260506230357 69 90 0.0 0.0 0.00 0.00 0.00 78 1016.5
20260506225857 69 90 0.0 0.0 0.00 0.00 0.00 78 1016.5
20260506225357 69 68 0.0 0.0 0.00 0.00 0.00 78 1016.6
20260506224857 69 30 0.0 0.0 0.00 0.00 0.00 77 1016.6
20260506224357 69 90 0.0 0.0 0.00 0.00 0.00 76 1016.6
20260506223857 69 90 0.0 0.0 0.00 0.00 0.00 76 1016.7
20260506223357 69 341 0.0 0.0 0.00 0.00 0.00 76 1016.7
20260506222856 69 327 0.0 0.0 0.00 0.00 0.00 76 1016.8
20260506222356 69 319 0.0 0.0 0.00 0.00 0.00 76 1016.8
20260506221858 70 314 0.0 0.0 0.00 0.00 0.00 75 1016.6
20260506221358 70 90 0.0 0.0 0.00 0.00 0.00 74 1016.7
20260506220857 70 90 0.0 0.0 0.00 0.00 0.00 73 1016.7
20260506220357 71 0 0.0 0.0 0.00 0.00 0.00 73 1016.6
20260506215857 71 88 0.0 0.0 0.00 0.00 0.00 72 1016.6
20260506215356 71 40 0.0 1.0 0.00 0.00 0.00 71 1016.8
20260506214858 72 35 0.0 1.0 0.00 0.00 0.00 71 1016.7
20260506214357 72 85 0.0 0.0 0.00 0.00 0.00 70 1016.5
20260506213857 72 96 0.0 0.0 0.00 0.00 0.00 70 1016.6
20260506213357 72 93 0.0 0.0 0.00 0.00 0.00 65 1016.5
20260506212857 73 115 0.0 1.0 0.00 0.00 0.00 65 1016.5
20260506212356 73 113 0.0 1.0 0.00 0.00 0.00 64 1016.5
20260506211856 73 93 0.0 0.0 0.00 0.00 0.00 64 1016.5
20260506211358 74 81 0.0 0.0 0.00 0.00 0.00 64 1016.7
20260506210858 74 98 0.0 1.0 0.00 0.00 0.00 62 1016.6
20260506210358 74 113 0.0 1.0 0.00 0.00 0.00 62 1016.5
20260506205858 75 152 0.0 1.0 0.00 0.00 0.00 62 1016.5
20260506205357 75 170 0.0 1.0 0.00 0.00 0.00 62 1016.4
20260506204857 75 85 0.0 1.0 0.00 0.00 0.00 62 1016.5
20260506204357 75 86 0.0 1.0 0.00 0.00 0.00 61 1016.4
20260506203857 76 163 1.0 1.0 0.00 0.00 0.00 61 1016.5
20260506203357 76 132 0.0 0.0 0.00 0.00 0.00 60 1016.7
20260506202857 77 166 0.0 2.0 0.00 0.00 0.00 60 1016.5
20260506202356 77 235 0.0 2.0 0.00 0.00 0.00 59 1016.8
20260506201856 78 267 1.0 2.0 0.00 0.00 0.00 57 1016.5
20260506201358 78 296 0.0 1.0 0.00 0.00 0.00 56 1016.6
20260506200858 79 143 0.0 1.0 0.00 0.00 0.00 54 1016.8
20260506200357 80 165 0.0 1.0 0.00 0.00 0.00 53 1016.9
20260506195857 81 163 0.0 3.0 0.00 0.00 0.00 53 1016.7
20260506195357 82 193 1.0 3.0 0.00 0.00 0.00 49 1016.9
20260506194857 81 226 0.0 3.0 0.00 0.00 0.00 52 1016.8
20260506194357 81 246 1.0 3.0 0.00 0.00 0.00 52 1016.8
20260506193857 81 268 2.0 4.0 0.00 0.00 0.00 52 1016.7
20260506193356 82 258 0.0 4.0 0.00 0.00 0.00 47 1016.7
20260506192858 82 177 3.0 6.0 0.00 0.00 0.00 46 1017.0
20260506192358 82 162 3.0 6.0 0.00 0.00 0.00 46 1016.9
20260506191858 82 196 3.0 6.0 0.00 0.00 0.00 47 1016.7
20260506191358 83 321 3.0 4.0 0.00 0.00 0.00 47 1016.8
20260506190858 83 323 1.0 6.0 0.00 0.00 0.00 48 1016.7
20260506190357 82 276 1.0 6.0 0.00 0.00 0.00 48 1016.7
20260506185857 82 218 1.0 5.0 0.00 0.00 0.00 47 1016.8
20260506185357 83 225 1.0 5.0 0.00 0.00 0.00 46 1016.7
20260506184857 83 222 2.0 6.0 0.00 0.00 0.00 46 1016.9
20260506184357 83 235 2.0 6.0 0.00 0.00 0.00 45 1016.7
20260506183857 83 225 4.0 6.0 0.00 0.00 0.00 44 1016.8
20260506183356 83 185 2.0 4.0 0.00 0.00 0.00 44 1016.8
20260506182859 83 198 3.0 5.0 0.00 0.00 0.00 44 1017.0
20260506182358 83 276 1.0 6.0 0.00 0.00 0.00 45 1016.8
20260506181858 83 284 3.0 6.0 0.00 0.00 0.00 45 1017.0
20260506181358 84 268 1.0 6.0 0.00 0.00 0.00 45 1016.8
20260506180858 84 193 1.0 6.0 0.00 0.00 0.00 44 1017.1
20260506180358 84 199 3.0 6.0 0.00 0.00 0.00 44 1017.1
20260506175857 84 287 3.0 6.0 0.00 0.00 0.00 44 1017.2
20260506175357 85 324 3.0 6.0 0.00 0.00 0.00 44 1017.2
20260506174857 84 250 3.0 8.0 0.00 0.00 0.00 43 1017.3
20260506174357 84 224 1.0 8.0 0.00 0.00 0.00 45 1017.2
20260506173857 83 194 6.0 8.0 0.00 0.00 0.00 44 1017.3
20260506173357 84 188 2.0 6.0 0.00 0.00 0.00 45 1017.2
20260506172858 84 223 4.0 6.0 0.00 0.00 0.00 44 1017.4
20260506172358 84 254 3.0 9.0 0.00 0.00 0.00 45 1017.4
20260506171858 84 260 2.0 9.0 0.00 0.00 0.00 43 1017.5
20260506170858 85 241 2.0 6.0 0.00 0.00 0.00 44 1017.7
20260506170358 84 227 6.0 6.0 0.00 0.00 0.00 44 1017.7